Weather History for Pian Rosa, Italy

Change the Weather History Date:

Tuesday, October 11, 2011

  Actual Average Record
Temperature  
Mean Temperature 30 °F -  
Max Temperature 33 °F 27 °F 37 °F (2006)
Min Temperature 26 °F 19 °F 6 °F (2013)
Degree Days  
Heating Degree Days 36    
Moisture  
Dew Point 15 °F    
Average Humidity 53    
Maximum Humidity 86    
Minimum Humidity 20    
Precipitation  
Precipitation 0.00 in - - ()
Sea Level Pressure  
Sea Level Pressure 30.54 in    
Wind  
Wind Speed 23 mph ()    
Max Wind Speed 37 mph    
Max Gust Speed -    
Visibility 7.9 miles    
Events      
Averages and records for this station are not official NWS values.
T = Trace of Precipitation, MM = Missing Value Source: Averaged Metar Reports

Daily Weather History Graph

Daily Weather History Graph

Search for Another Location

Airport:

Trip Planner

Search our weather history database for the weather conditions in past years. The results will help you decide how hot, cold, wet, or windy it might be!

Date:

Astronomy

Oct. 11, 2011 Rise Set
Actual Time 7:39 AM CEST 6:51 PM CEST
Civil Twilight 7:09 AM CEST 7:21 PM CEST
Nautical Twilight 6:35 AM CEST 7:55 PM CEST
Astronomical Twilight 6:00 AM CEST 8:30 PM CEST
Moon 6:12 PM CEST (10/11) 7:03 AM CEST (10/11)
Length of Visible Light 12h 11m
Length of Day
11h 11m
Full, 100% of the Moon is Illuminated
Oct 11
Full
Oct 12
Full
Oct 20
Last Quarter
Oct 26
New
Nov 2
First Quarter

Hourly Weather History & Observations

Time (CEST) Temp. Windchill Dew Point Humidity Pressure Visibility Wind Dir Wind Speed Gust Speed Precip Events Conditions
12:55 AM 26.6 °F 11.4 °F 23.0 °F 86% 30.51 in - ENE 25.3 mph - N/A   Clear
1:55 AM 26.6 °F 10.6 °F 23.0 °F 86% 30.51 in - ENE 28.8 mph - N/A   Clear
2:00 AM 27 °F - 22 °F 76%  in 6 mi ENE 28.8 mph - -   Partly Cloudy
2:55 AM 26.6 °F 10.8 °F 23.0 °F 86% 30.51 in - ENE 27.6 mph - N/A   Clear
3:55 AM 28.4 °F 15.1 °F 24.8 °F 86% 30.51 in - ENE 20.7 mph - N/A   Clear
4:55 AM 30.2 °F 17.4 °F 26.6 °F 86% 30.51 in - ENE 20.7 mph - N/A   Clear
5:00 AM 30 °F - 26 °F 78%  in 6 mi ENE 20.7 mph - -  
5:55 AM 30.2 °F 17.4 °F 24.8 °F 80% 30.51 in - NE 20.7 mph - N/A   Clear
6:55 AM 30.2 °F 15.9 °F 24.8 °F 80% 30.54 in - ENE 26.5 mph - N/A   Clear
7:55 AM 28.4 °F 14.1 °F 23.0 °F 80% 30.54 in 6.2 mi NE 24.2 mph - N/A   Scattered Clouds
8:00 AM 29 °F - 22 °F 68%  in 12 mi NE 24.2 mph - -   Partly Cloudy
8:55 AM 30.2 °F 16.8 °F 19.4 °F 64% 30.54 in 6.2 mi NE 23.0 mph - N/A   Mostly Cloudy
9:55 AM 30.2 °F 16.5 °F 17.6 °F 60% 30.54 in 6.2 mi ENE 24.2 mph - N/A   Partly Cloudy
10:55 AM 30.2 °F 16.2 °F 15.8 °F 55% 30.51 in 6.2 mi ENE 25.3 mph - N/A   Partly Cloudy
11:00 AM 31 °F - 15 °F 38%  in 47 mi ENE 25.3 mph - -   Scattered Clouds
11:55 AM 32.0 °F 18.6 °F 10.4 °F 41% 30.57 in - ENE 25.3 mph - N/A   Clear
12:55 PM 32.0 °F 19.2 °F 10.4 °F 41% 30.57 in - ENE 23.0 mph - N/A   Clear
1:55 PM 32.0 °F 22.1 °F 6.8 °F 35% 30.57 in - ENE 13.8 mph - N/A   Clear
2:00 PM 32 °F - 6 °F 20%  in 47 mi ENE 13.8 mph - -  
2:55 PM 32.0 °F 19.8 °F 5.0 °F 32% 30.57 in - ENE 20.7 mph - N/A   Clear
3:55 PM 32.0 °F 19.2 °F 5.0 °F 32% 30.57 in - ENE 23.0 mph - N/A   Clear
4:55 PM 32.0 °F 18.6 °F 5.0 °F 32% 30.57 in - ENE 25.3 mph - N/A   Clear
5:00 PM 31 °F - 6 °F 20%  in 47 mi ENE 25.3 mph - -  
5:55 PM 32.0 °F 18.4 °F 8.6 °F 38% 30.54 in - NE 26.5 mph - N/A   Clear
6:55 PM 32.0 °F 18.9 °F 8.6 °F 38% 30.54 in - NNE 24.2 mph - N/A   Clear
7:55 PM 33.8 °F 20.8 °F 10.4 °F 38% 30.54 in 6.2 mi NE 26.5 mph - N/A   Partly Cloudy
8:00 PM 33 °F - 10 °F 25%  in 19 mi NE 26.5 mph - -   Scattered Clouds
8:55 PM 32.0 °F 17.9 °F 12.2 °F 44% 30.54 in 6.2 mi NE 28.8 mph - N/A   Partly Cloudy
9:55 PM 32.0 °F 16.3 °F 14.0 °F 48% 30.54 in 6.2 mi NE 36.8 mph - N/A   Partly Cloudy
10:55 PM 32.0 °F 16.5 °F 10.4 °F 41% 30.54 in 6.2 mi ENE 35.7 mph - N/A   Partly Cloudy
11:00 PM 32 °F - 10 °F 25%  in 12 mi ENE 35.7 mph - -   Scattered Clouds
11:55 PM 32.0 °F 16.7 °F 12.2 °F 44% 30.54 in 6.2 mi NE 34.5 mph - N/A   Partly Cloudy